KB3FCJ-2 Weather Reports


time (UTC)temp
F
wind
direction
speed
knots
gust
knots
rain 1hr
in
rain 24hr
in
rain mn
in
humidity
%
barometer
mb
20260510152841 72 214 2.6 17.4 0.00 0.01 0.01 62 593.2
20260510151840 72 0 0.0 10.4 0.00 0.01 0.01 64 593.2
20260510150438 71 227 8.7 18.2 0.00 0.01 0.01 65 593.2
20260510145439 71 256 4.3 18.2 0.00 0.01 0.01 65 593.2
20260510144438 71 258 2.6 10.4 0.00 0.01 0.01 65 593.2
20260510143439 70 0 0.0 6.1 0.00 0.01 0.01 68 593.2
20260510142040 69 215 0.9 6.1 0.00 0.01 0.01 67 593.2
20260510141040 69 244 1.7 3.5 0.00 0.01 0.01 71 593.2
20260510140040 67 223 1.7 5.2 0.00 0.01 0.01 74 593.2
20260510135039 67 243 0.9 3.5 0.00 0.01 0.01 77 593.2
20260510133623 65 279 0.9 3.5 0.00 0.01 0.01 79 593.2
20260510132623 64 0 0.0 1.7 0.00 0.01 0.01 83 593.2
20260510131623 63 0 0.0 1.7 0.00 0.01 0.01 83 593.2
20260510130623 62 0 0.0 0.9 0.00 0.01 0.01 86 593.2
20260510125228 59 0 0.0 1.7 0.00 0.01 0.01 89 593.2
20260510124228 59 0 0.0 0.0 0.00 0.01 0.01 91 593.2
20260510123230 57 0 0.0 0.0 0.00 0.01 0.01 93 593.2
20260510122228 56 0 0.0 0.0 0.00 0.01 0.01 94 593.2
20260510120813 54 0 0.0 0.0 0.00 0.01 0.01 96 593.2
20260510115813 54 0 0.0 0.0 0.00 0.01 0.01 96 593.2
20260510114813 53 0 0.0 0.0 0.00 0.01 0.01 96 593.2
20260510113813 53 0 0.0 0.9 0.00 0.01 0.01 96 593.2
20260510112406 51 0 0.0 0.0 0.00 0.01 0.01 96 593.2
20260510111406 51 0 0.0 0.0 0.00 0.01 0.01 96 822.5
20260510110406 51 0 0.0 2.6 0.00 0.01 0.01 96 822.5
20260510105406 50 0 0.0 0.9 0.00 0.01 0.01 96 822.5
20260510104001 50 0 0.0 0.0 0.01 0.01 0.01 96 822.5
20260510103001 50 0 0.0 0.0 0.01 0.01 0.01 96 822.5
20260510102001 50 0 0.0 0.0 0.01 0.01 0.01 96 822.5
20260510101001 50 0 0.0 0.9 0.01 0.01 0.01 95 822.5
20260510095603 50 0 0.0 0.9 0.01 0.01 0.01 95 822.5
20260510094602 50 0 0.0 0.0 0.01 0.01 0.01 95 822.5
20260510093603 50 0 0.0 0.0 0.00 0.00 0.00 95 822.5
20260510092602 50 0 0.0 0.0 0.00 0.00 0.00 95 822.5
20260510091147 50 0 0.0 0.0 0.00 0.00 0.00 95 822.5
20260510090147 50 0 0.0 0.0 0.00 0.00 0.00 95 822.5
20260510085147 51 0 0.0 0.0 0.00 0.00 0.00 95 822.5
20260510084148 51 0 0.0 4.3 0.00 0.00 0.00 95 822.5
20260510082358 50 91 0.9 7.0 0.00 0.00 0.00 95 822.5
20260510081359 49 326 2.6 6.1 0.00 0.00 0.00 94 822.5
20260510080358 50 0 0.0 0.0 0.00 0.00 0.00 94 822.5
20260510075359 50 0 0.0 0.0 0.00 0.00 0.00 94 822.5
20260510074017 50 0 0.0 0.9 0.00 0.00 0.00 94 822.5
20260510073018 50 0 0.0 0.0 0.00 0.00 0.00 94 822.5
20260510072017 50 0 0.0 0.0 0.00 0.00 0.00 94 822.5
20260510071018 50 0 0.0 0.0 0.00 0.00 0.00 94 822.5
20260510065616 50 0 0.0 0.0 0.00 0.00 0.00 93 822.5
20260510064617 50 0 0.0 0.0 0.00 0.00 0.00 93 822.5
20260510063616 51 0 0.0 0.0 0.00 0.00 0.00 93 822.5
20260510062617 50 0 0.0 0.0 0.00 0.00 0.00 93 822.5
20260510061213 50 0 0.0 0.0 0.00 0.00 0.00 93 822.5
20260510060214 50 0 0.0 0.0 0.00 0.00 0.00 93 822.5
20260510055213 50 0 0.0 0.0 0.00 0.00 0.00 92 822.5
20260510054214 50 0 0.0 0.0 0.00 0.00 0.00 92 822.5
20260510052812 50 0 0.0 0.0 0.00 0.00 0.00 92 822.5
20260510051813 50 0 0.0 0.0 0.00 0.00 0.00 92 822.5
20260510050812 51 0 0.0 0.0 0.00 0.00 0.00 92 822.5
20260510045813 51 0 0.0 0.0 0.00 0.00 0.00 92 822.5
20260510044406 51 0 0.0 0.0 0.00 0.00 0.00 92 822.5
20260510043406 51 0 0.0 0.0 0.00 0.00 0.00 92 822.5
20260510042405 52 0 0.0 0.0 0.00 0.00 0.00 92 822.5
20260510041406 52 0 0.0 0.0 0.00 0.00 0.00 91 822.5
20260510035959 52 0 0.0 0.0 0.00 0.00 0.00 91 822.5
20260510034959 52 0 0.0 0.0 0.00 0.00 0.00 91 822.5
20260510034001 52 0 0.0 0.0 0.00 0.00 0.00 91 822.5
20260510032959 52 0 0.0 0.0 0.00 0.00 0.00 90 822.5
20260510031556 52 0 0.0 0.0 0.00 0.00 0.00 90 822.5
20260510030556 53 0 0.0 0.0 0.00 0.00 0.00 90 822.5
20260510025556 53 0 0.0 0.0 0.00 0.00 0.00 89 822.5
20260510024556 53 0 0.0 0.0 0.00 0.00 0.00 89 822.5
20260510023158 53 0 0.0 0.0 0.00 0.00 0.00 89 822.5
20260510022157 54 0 0.0 0.0 0.00 0.00 0.00 89 822.5
20260510021158 54 0 0.0 0.0 0.00 0.00 0.00 89 822.5
20260510020157 54 0 0.0 0.0 0.00 0.00 0.00 89 822.5
20260510013808 55 0 0.0 0.0 0.00 0.00 0.00 88 822.5
20260510012808 55 0 0.0 0.0 0.00 0.00 0.00 87 822.5
20260510011809 56 0 0.0 0.0 0.00 0.00 0.00 87 822.5
20260510010419 56 0 0.0 0.0 0.00 0.00 0.00 86 822.5
20260510005419 57 0 0.0 0.0 0.00 0.00 0.00 85 822.5
20260510004420 57 0 0.0 0.0 0.00 0.00 0.00 85 822.5
20260510003419 58 0 0.0 0.0 0.00 0.00 0.00 84 822.5
20260510002040 58 0 0.0 0.0 0.00 0.00 0.00 84 822.5
20260510001041 58 0 0.0 0.0 0.00 0.00 0.00 83 822.5
20260510000040 59 0 0.0 0.9 0.00 0.00 0.00 83 822.5
20260509235040 59 0 0.0 0.0 0.00 0.00 0.00 82 822.5
20260509233701 60 0 0.0 1.7 0.00 0.00 0.00 82 822.5
20260509232702 60 94 0.9 2.6 0.00 0.00 0.00 81 822.5
20260509231701 61 0 0.0 1.7 0.00 0.00 0.00 81 822.5
20260509230702 61 0 0.0 1.7 0.00 0.00 0.00 81 822.5
20260509225327 61 0 0.0 0.9 0.00 0.00 0.00 82 822.5
20260509224326 61 0 0.0 1.7 0.00 0.00 0.00 81 822.5
20260509223327 60 0 0.0 0.9 0.00 0.00 0.00 81 822.5
20260509222327 60 0 0.0 0.9 0.00 0.00 0.00 82 822.5
20260509220943 60 0 0.0 1.7 0.00 0.00 0.00 82 822.5
20260509215944 59 0 0.0 0.9 0.00 0.00 0.00 82 822.5
20260509214944 59 0 0.0 3.5 0.00 0.00 0.00 83 822.5
20260509213944 59 0 0.0 2.6 0.00 0.00 0.00 82 822.5
20260509212555 59 0 0.0 2.6 0.00 0.00 0.00 83 822.5
20260509211555 59 0 0.0 1.7 0.00 0.00 0.00 83 822.5
20260509210555 59 0 0.0 3.5 0.00 0.00 0.00 83 822.5
20260509205555 59 0 0.0 3.5 0.00 0.00 0.00 83 822.5
20260509204204 59 0 0.0 0.0 0.00 0.00 0.00 83 822.5
20260509203204 60 0 0.0 0.9 0.00 0.00 0.00 81 822.5
20260509201204 61 0 0.0 0.0 0.00 0.00 0.00 77 822.5
20260509195809 60 0 0.0 4.3 0.00 0.00 0.00 77 822.5
20260509193809 60 305 2.6 7.8 0.00 0.00 0.00 80 822.5
20260509192809 58 0 0.0 7.0 0.00 0.00 0.00 81 822.5
20260509191412 58 326 1.7 7.0 0.00 0.00 0.00 81 822.5
20260509190412 58 327 1.7 7.8 0.00 0.00 0.00 81 822.5
20260509185412 57 300 1.7 7.0 0.00 0.00 0.00 82 822.5
20260509184412 57 356 1.7 7.0 0.00 0.00 0.00 81 822.5
20260509183003 58 338 2.6 7.0 0.00 0.00 0.00 78 822.5
20260509182003 58 306 3.5 7.0 0.00 0.00 0.00 77 822.5
20260509181003 59 348 2.6 7.8 0.00 0.00 0.00 79 822.5
20260509180003 59 343 1.7 7.0 0.00 0.00 0.00 81 822.5
20260509173600 59 316 2.6 5.2 0.00 0.00 0.00 81 822.5
20260509172600 59 319 1.7 7.0 0.00 0.00 0.00 78 822.5
20260509171601 60 269 3.5 7.8 0.00 0.00 0.00 75 822.5
20260509170151 60 0 0.0 5.2 0.00 0.00 0.00 73 822.5
20260509165151 60 0 0.0 0.9 0.00 0.00 0.00 74 822.5
20260509164151 60 0 0.0 0.9 0.00 0.00 0.00 74 822.5
20260509163151 60 0 0.0 0.9 0.00 0.00 0.00 73 822.5
20260509161747 60 0 0.0 0.0 0.00 0.00 0.00 74 822.5
20260509160746 61 0 0.0 0.0 0.00 0.00 0.00 78 822.5
20260509155747 61 0 0.0 0.0 0.00 0.00 0.00 78 822.5
20260509154746 60 0 0.0 1.7 0.00 0.00 0.00 77 822.5